星链-34036 (STARLINK-34036)

导读

STARLINK-34036是美国SpaceX公司星链(Starlink)星座项目的卫星,于2025年5月13日发射升空。它是星链全球卫星互联网组网的组成部分,运行于近地轨道,旨在为全球偏远、欠发达地区提供低延迟、高速宽带互联网接入服务,助力实现全球网络覆盖,支撑星链面向个人、企业以及移动通信基础设施的服务拓展。

Basic Information
目录编号:
63945
目录名称:
STARLINK-34036
国际标识:
2025-098V
轨道中心:
EARTH
卫星名称:
星链-34036
卫星全名:
星链-34036 (STARLINK-34036)
卫星状态:
在轨 (已飞行479 天)
发射日期:
2025-05-13 UTC
国别 :
美国 (US)
星等 :
--
Orbit Information
数据来源 国际轨道数据
星历时间: 2026-09-04T04:00:02+0800
9小时前
查看轨道信息
半长轴: 6855.2km
偏心率: 0.0003078
轨道倾角: 70.000°
近地点辐角 271.067°
升交点赤经 184.861°
平近点角 228.384°
近地点: 474.952km
远地点: 479.174km
周期: 94.143分钟
每日圈数: 15.295814
Detailed Information
固有亮度:
5
最大亮度:
2.5
卫星平台:
Starlink V1.0
覆盖范围:
全球
运营商:
太空探索技术公司
运营商所在国:
美国
制造商(研发单位):
太空探索技术公司
制造商所在国:
美国
使用方式:
暂无
Satellite Introduction
Starlink 计划是 SpaceX 推出的全球卫星互联网项目,通过发射低轨道卫星,为全球尤其是偏远地区提供高速、低延迟的互联网服务。自 2019 年起,Starlink 已部署数千颗卫星,旨在缩小全球数字鸿沟,推动互联网普及。该项目还为军事、航空等行业提供通信支持,带来广泛经济效益。
2D Orbit Map
3D Orbit Map
Orbit Altitude Analysis Chart
Orbit Inclination Analysis Chart
Orbit Comprehensive Analysis Chart
View Comprehensive Chart
Conjunction Data List
Event ID Objects TCA Miss Dist (km) Collision Risk Probability Collision Risk Index (CRI) Action
CDM_260904-032605-841406-394521
2026-09-04T
03:26:27+0000
2.117 km
极远距离
1.570487E-6 低风险 0.39
CDM_260903-192905-536906-394521
2026-09-03T
19:29:09+0000
2.889 km
极远距离
1.263319E-6 低风险 0.37
CDM_260904-142305-956406-394521
2026-09-04T
14:23:39+0000
2.768 km
极远距离
1.247137E-6 低风险 0.37
CDM_260904-083806-348506-394521
2026-09-04T
08:38:03+0000
2.938 km
极远距离
1.232431E-6 低风险 0.37
CDM_260903-101005-805906-394521
2026-09-03T
10:10:31+0000
2.586 km
极远距离
1.225429E-6 低风险 0.37
CDM_260902-055405-958106-394521
2026-09-02T
05:54:15+0000
2.970 km
极远距离
1.074847E-6 低风险 0.36
CDM_260905-045806-162706-394521
2026-09-05T
04:58:41+0000
2.800 km
极远距离
7.860283E-7 极低风险 0.33